Flight Track Log - Related Links

Times and Time Zones

All times are in EDT time to prevent confusion due to time zone crossing. See the ASQ4565 flight status page for this flight to view local times or setup timezone preferences in your user account.

Time Position Orientation Groundspeed Altitude Reporting Facility
EDT Latitude Longitude Course Direction KTS MPH feet Rate Location/Type
Wed 10:48:41 PM 29.9622 -95.3433 127° Southeast 160 184 900  Level Houston Center
Wed 10:49:36 PM 29.9322 -95.2967 127° Southeast 227 261 2,900 1,918 Climbing Houston Center
Wed 10:50:43 PM 29.8861 -95.2258 123° Southeast 257 296 4,800 2,075 Climbing Houston Center
Wed 10:51:23 PM 29.8603 -95.1794 159° South 262 302 6,600 2,760 Climbing Houston Center
Wed 10:52:23 PM 29.7900 -95.1483 163° South 277 319 9,400 2,300 Climbing Houston Center
Wed 10:53:23 PM 29.7094 -95.1192 168° South 312 359 11,200 1,563 Climbing Houston Center
Wed 10:54:22 PM 29.6286 -95.0997 220° Southwest 360 414 12,500 1,714 Climbing Houston Center
Wed 10:55:22 PM 29.5556 -95.1714 233° Southwest 344 396 14,600 1,983 Climbing Houston Center
Wed 10:56:23 PM 29.4992 -95.2578 233° Southwest 331 381 16,500 1,884 Climbing Houston Center
Wed 10:57:23 PM 29.4403 -95.3464 241° Southwest 339 390 18,400 2,200 Climbing Houston Center
Wed 10:58:23 PM 29.3939 -95.4425 241° Southwest 345 397 20,900 2,550 Climbing Houston Center
Wed 10:59:23 PM 29.3517 -95.5314 244° Southwest 345 397 23,500 2,450 Climbing Houston Center
Wed 11:00:23 PM 29.3114 -95.6253 241° Southwest 334 384 25,800 1,250 Climbing Houston Center
Wed 11:01:23 PM 29.2647 -95.7211 242° Southwest 334 384 26,000 100 Climbing Houston Center
Wed 11:02:23 PM 29.2136 -95.8308 243° Southwest 363 418 26,000  Level Houston Center
Wed 11:03:23 PM 29.1597 -95.9500 242° Southwest 397 457 26,000  Level Houston Center
Wed 11:04:23 PM 29.1036 -96.0689 242° Southwest 418 481 26,000  Level Houston Center
Wed 11:05:23 PM 29.0431 -96.1994 241° Southwest 438 504 26,000  Level Houston Center
Wed 11:06:23 PM 28.9825 -96.3250 243° Southwest 444 511 26,000  Level Houston Center
Wed 11:07:23 PM 28.9281 -96.4483 241° Southwest 444 511 26,000  Level Houston Center
Wed 11:08:23 PM 28.8717 -96.5644 242° Southwest 439 505 26,000  Level Houston Center
Wed 11:09:23 PM 28.8153 -96.6850 242° Southwest 439 505 26,000  Level Houston Center
Wed 11:10:22 PM 28.7608 -96.8008 242° Southwest 434 499 26,000  Level Houston Center
Wed 11:11:22 PM 28.7042 -96.9214 241° Southwest 434 499 26,000  Level Houston Center
Wed 11:12:22 PM 28.6475 -97.0367 242° Southwest 429 494 26,000  Level Houston Center
Wed 11:13:22 PM 28.5925 -97.1547 242° Southwest 429 494 26,000  Level Houston Center
Wed 11:14:22 PM 28.5378 -97.2722 241° Southwest 429 494 26,000  Level Houston Center
Wed 11:15:23 PM 28.4806 -97.3897 241° Southwest 429 494 26,000  Level Houston Center
Wed 11:16:23 PM 28.4236 -97.5072 242° Southwest 429 494 26,000  Level Houston Center
Wed 11:17:22 PM 28.3683 -97.6269 239° Southwest 424 488 26,000  Level Houston Center
Wed 11:18:23 PM 28.3089 -97.7414 242° Southwest 424 488 26,000  Level Houston Center
Wed 11:19:23 PM 28.2536 -97.8608 242° Southwest 424 488 26,000  Level Houston Center
Wed 11:20:23 PM 28.1981 -97.9800 236° Southwest 429 494 26,000  Level Houston Center
Wed 11:21:23 PM 28.1392 -98.0778 241° Southwest 424 488 26,000 -1,150 Level Houston Center
Wed 11:22:23 PM 28.0839 -98.1900 243° Southwest 418 481 23,700 -2,500 Descending Houston Center
Wed 11:23:23 PM 28.0325 -98.3019 241° Southwest 407 468 21,000 -2,750 Descending Houston Center
Wed 11:24:23 PM 27.9794 -98.4092 241° Southwest 401 461 18,200 -2,700 Descending Houston Center
Wed 11:25:23 PM 27.9283 -98.5142 241° Southwest 401 461 15,600 -2,600 Descending Houston Center
Wed 11:26:23 PM 27.8772 -98.6164 241° Southwest 396 456 13,000 -2,100 Descending Houston Center
Wed 11:27:23 PM 27.8306 -98.7119 242° Southwest 369 425 11,400 -1,650 Descending Houston Center
Wed 11:28:23 PM 27.7908 -98.7964 241° Southwest 334 384 9,700 -1,800 Descending Houston Center
Wed 11:29:23 PM 27.7511 -98.8758 240° Southwest 313 360 7,800 -1,600 Descending Houston Center
Wed 11:30:23 PM 27.7139 -98.9483 241° Southwest 294 338 6,500 -1,900 Descending Houston Center
Wed 11:31:23 PM 27.6764 -99.0256 241° Southwest 268 308 4,000 -1,250 Descending Houston Center
Wed 11:32:23 PM 27.6461 -99.0867 240° Southwest 249 287 4,000  Level Houston Center
Wed 11:33:23 PM 27.6181 -99.1408 243° Southwest 225 259 4,000  Level Houston Center
Wed 11:34:23 PM 27.5919 -99.1978 264° West 213 245 4,000  Level Houston Center
Wed 11:35:22 PM 27.5867 -99.2558 291° West 193 222 4,000 -101 Level Houston Center
Wed 11:36:22 PM 27.6100 -99.3231 297° West 203 234 3,800 -744 Descending Houston Center
Wed 11:37:23 PM 27.6361 -99.3811 294° West 203 234 2,500 -694 Descending Houston Center
Wed 11:38:23 PM 27.6597 -99.4414 200° South 217 250 2,400 -250 Descending Houston Center
Wed 11:39:23 PM 27.6256 -99.4553 183° South 123 142 2,000 -600 Descending Houston Center
Wed 11:40:23 PM 27.5922 -99.4575 183° South 101 116 1,200 -800 Descending Houston Center

Login

Don't have an account? Register now (free) for customized features, flight alerts, and more!